Defiance, OH

12:29 AM EST on January 21, 2018 (GMT -0500)
Defiance Memorial

Weather History for KDFI - March, 2014

Change the Weather History Date:

Wednesday, March 12, 2014

  Actual Average Record
Temperature  
Mean Temperature 29 °F -  
Max Temperature 39 °F 44 °F 75 °F (1990)
Min Temperature 18 °F 25 °F -7 °F (1948)
Degree Days  
Heating Degree Days 36    
Moisture  
Dew Point 23 °F    
Average Humidity 79    
Maximum Humidity 92    
Minimum Humidity 65    
Precipitation  
Precipitation 0.13 in - - ()
Sea Level Pressure  
Sea Level Pressure 29.68 in    
Wind  
Wind Speed 15 mph (North)    
Max Wind Speed 25 mph    
Max Gust Speed 38 mph    
Visibility 5 miles    
Events Fog , Rain , Snow    
Averages and records for this station are not official NWS values.
T = Trace of Precipitation, MM = Missing Value Source: NWS Daily Summary

Daily Weather History Graph

Daily Weather History Graph

Search for Another Location

Airport or City:

Trip Planner

Search our weather history database for the weather conditions in past years. The results will help you decide how hot, cold, wet, or windy it might be!

Date:

Astronomy

Mar. 12, 2014 Rise Set
Actual Time 7:54 AM EDT 7:41 PM EDT
Civil Twilight 7:26 AM EDT 8:08 PM EDT
Nautical Twilight 6:54 AM EDT 8:40 PM EDT
Astronomical Twilight 6:22 AM EDT 9:13 PM EDT
Moon 4:09 PM EDT (3/12) 5:27 AM EDT (3/12)
Length of Visible Light 12h 41m
Length of Day
11h 46m
Waxing Gibbous, 85% of the Moon is Illuminated
Mar 12
Waxing Gibbous
Mar 16
Full
Mar 23
Last Quarter
Mar 30
New
Apr 7
First Quarter

Hourly Weather History & Observations

Time (EDT) Temp. Windchill Dew Point Humidity Pressure Visibility Wind Dir Wind Speed Gust Speed Precip Events Conditions
12:53 AM 39.0 °F 31.8 °F 34.0 °F 82% 29.66 in 10.0 mi NNE 11.5 mph - N/A   Scattered Clouds
1:53 AM 37.9 °F 30.9 °F 34.0 °F 86% 29.63 in 10.0 mi NNE 10.4 mph - N/A   Scattered Clouds
2:53 AM 37.9 °F 30.0 °F 34.0 °F 86% 29.60 in 10.0 mi NNE 12.7 mph - N/A   Mostly Cloudy
3:09 AM 37.9 °F 30.5 °F 34.0 °F 86% 29.60 in 10.0 mi NNE 11.5 mph - N/A   Overcast
3:53 AM 37.0 °F 28.9 °F 33.1 °F 86% 29.56 in 10.0 mi NE 12.7 mph 21.9 mph N/A   Overcast
4:40 AM 35.1 °F 24.8 °F 30.9 °F 85% 29.52 in 8.0 mi NE 17.3 mph 25.3 mph 0.00 in   Overcast
4:53 AM 35.1 °F 25.2 °F 30.9 °F 85% 29.52 in 7.0 mi NE 16.1 mph 27.6 mph 0.00 in Rain Light Rain
5:38 AM 33.1 °F 21.2 °F 30.0 °F 89% 29.51 in 2.0 mi NE 20.7 mph 28.8 mph 0.05 in Snow Light Snow
5:42 AM 33.1 °F 22.6 °F 28.9 °F 85% 29.52 in 1.2 mi NNE 16.1 mph 28.8 mph 0.05 in Snow Light Snow
5:47 AM 33.8 °F 23.9 °F 28.4 °F 81% 29.52 in 0.8 mi NE 15.0 mph - 0.06 in Snow Light Snow
5:49 AM 33.8 °F 24.3 °F 28.4 °F 81% 29.52 in 0.8 mi NNE 13.8 mph 21.9 mph 0.07 in Snow Light Snow
5:53 AM 33.1 °F 23.0 °F 28.9 °F 85% 29.54 in 0.8 mi NNE 15.0 mph - 0.07 in Snow Light Snow
6:05 AM 32.0 °F 20.8 °F 28.9 °F 88% 29.53 in 0.5 mi NNE 17.3 mph 28.8 mph 0.02 in Fog , Snow Snow
6:32 AM 30.9 °F 18.4 °F 28.9 °F 92% 29.52 in 0.5 mi NNE 20.7 mph 33.4 mph 0.05 in Fog Light Freezing Fog
6:53 AM 30.9 °F 19.1 °F 28.9 °F 92% 29.54 in 0.2 mi North 18.4 mph 28.8 mph 0.06 in Fog , Snow Heavy Snow
7:07 AM 30.9 °F 17.8 °F 28.9 °F 92% 29.52 in 0.2 mi NNE 23.0 mph 35.7 mph 0.01 in Fog Light Freezing Fog
10:19 AM 30.0 °F 17.2 °F 27.0 °F 88% 29.53 in 1.0 mi North 20.7 mph 31.1 mph N/A   Mist
10:35 AM 30.0 °F 17.5 °F 27.0 °F 88% 29.54 in 1.0 mi North 19.6 mph 29.9 mph N/A   Overcast
10:42 AM 30.0 °F 17.9 °F 27.0 °F 88% 29.55 in 1.2 mi North 18.4 mph 32.2 mph N/A   Overcast
10:51 AM 30.2 °F 17.1 °F 26.6 °F 86% 29.55 in 1.0 mi North 21.9 mph 29.9 mph N/A   Overcast
10:53 AM 30.0 °F 17.9 °F 27.0 °F 88% 29.57 in 1.0 mi North 18.4 mph 29.9 mph N/A   Overcast
10:59 AM 30.0 °F 18.3 °F 27.0 °F 88% 29.55 in 0.8 mi North 17.3 mph 29.9 mph N/A   Overcast
11:39 AM 30.0 °F 18.3 °F 27.0 °F 88% 29.58 in 0.5 mi North 17.3 mph 27.6 mph N/A Fog Light Freezing Fog
11:53 AM 30.0 °F 18.3 °F 27.0 °F 88% 29.60 in 0.2 mi North 17.3 mph 24.2 mph N/A Fog Light Freezing Fog
12:35 PM 30.0 °F 18.3 °F 27.0 °F 88% 29.61 in 0.8 mi North 17.3 mph 29.9 mph N/A   Overcast
12:53 PM 30.0 °F 18.3 °F 27.0 °F 88% 29.65 in 0.8 mi NNW 17.3 mph 24.2 mph N/A   Overcast
1:38 PM 28.0 °F 13.9 °F 23.0 °F 81% 29.67 in 0.8 mi North 23.0 mph 35.7 mph N/A   Haze
1:53 PM 28.0 °F 13.6 °F 21.9 °F 78% 29.70 in 1.0 mi North 24.2 mph 38.0 mph N/A   Haze
2:12 PM 28.9 °F 15.8 °F 21.9 °F 75% 29.69 in 2.5 mi North 20.7 mph 31.1 mph N/A   Haze
2:21 PM 28.0 °F 14.6 °F 21.9 °F 78% 29.70 in 1.8 mi NNW 20.7 mph 31.1 mph N/A   Haze
2:32 PM 28.0 °F 14.9 °F 21.0 °F 75% 29.70 in 2.5 mi NNW 19.6 mph 28.8 mph N/A   Haze
2:41 PM 28.0 °F 14.6 °F 19.9 °F 72% 29.71 in 3.0 mi North 20.7 mph 31.1 mph N/A   Haze
2:51 PM 26.6 °F 11.7 °F 19.4 °F 74% 29.72 in 2.5 mi North 24.2 mph 32.2 mph N/A   Haze
2:53 PM 27.0 °F 11.9 °F 19.0 °F 72% 29.74 in 2.5 mi North 25.3 mph 32.2 mph N/A   Haze
2:59 PM 27.0 °F 14.3 °F 19.9 °F 75% 29.73 in 2.0 mi North 17.3 mph 32.2 mph N/A   Haze
3:08 PM 27.0 °F 14.3 °F 21.0 °F 78% 29.73 in 2.5 mi North 17.3 mph 26.5 mph N/A   Haze
3:16 PM 27.0 °F 13.9 °F 21.0 °F 78% 29.74 in 2.0 mi North 18.4 mph 26.5 mph N/A   Haze
3:26 PM 27.0 °F 13.5 °F 19.9 °F 75% 29.75 in 3.0 mi North 19.6 mph 29.9 mph N/A   Haze
3:34 PM 28.0 °F 15.3 °F 19.0 °F 69% 29.75 in 8.0 mi North 18.4 mph 31.1 mph N/A   Overcast
3:45 PM 28.0 °F 14.6 °F 19.0 °F 69% 29.75 in 10.0 mi North 20.7 mph 25.3 mph N/A   Overcast
3:53 PM 28.0 °F 15.3 °F 19.0 °F 69% 29.78 in 10.0 mi North 18.4 mph 26.5 mph N/A   Overcast
4:35 PM 28.0 °F 16.1 °F 18.0 °F 66% 29.79 in 10.0 mi North 16.1 mph 24.2 mph N/A   Overcast
4:53 PM 28.0 °F 17.5 °F 18.0 °F 66% 29.83 in 10.0 mi North 12.7 mph - N/A   Overcast
5:53 PM 26.1 °F 14.0 °F 17.1 °F 69% 29.87 in 10.0 mi NNE 15.0 mph - N/A   Overcast
6:53 PM 24.1 °F 12.5 °F 16.0 °F 71% 29.91 in 10.0 mi NNE 12.7 mph - N/A   Overcast
7:53 PM 21.9 °F 13.4 °F 12.0 °F 66% 29.95 in 10.0 mi NE 6.9 mph - N/A   Overcast
8:53 PM 19.9 °F 14.9 °F 10.0 °F 65% 29.99 in 10.0 mi NE 3.5 mph - N/A   Overcast
9:53 PM 19.9 °F 14.9 °F 10.9 °F 68% 30.02 in 10.0 mi NNE 3.5 mph - N/A   Overcast
10:53 PM 19.0 °F - 10.0 °F 68% 30.04 in 10.0 mi Calm Calm - N/A   Overcast
11:06 PM 19.0 °F - 10.0 °F 68% 30.02 in 10.0 mi Calm Calm - N/A   Overcast
11:53 PM 18.0 °F 7.7 °F 8.1 °F 65% 30.06 in 10.0 mi North 8.1 mph - N/A   Overcast